Regional Weather Roundup
Issued by NWS

Home | Current Version | Previous Version | Text Only | Print | Product List | Glossary On
Versions: 1 2 3 4 5 6 7 8 9 10 11 12 13 14 15 16 17 18 19 20 21 22 23 24 25 26 27 28 29 30 31 32 33 34 35 36 37 38 39 40 41 42 43 44 45 46 47 48 49 50
000
ASUS43 KDMX 172006
RWRIA

WEATHER ROUNDUP FOR IOWA
NATIONAL WEATHER SERVICE DES MOINES IA
300 PM CDT THU AUG 17 2017

NOTE: "FAIR" INDICATES FEW OR NO CLOUDS BELOW 12,000 FEET WITH NO
SIGNIFICANT WEATHER AND/OR OBSTRUCTIONS TO VISIBILITY.

* - THESE STATIONS ARE NOT NWS STATIONS...THUS NOT UNDER NWS
QUALITY CONTROL.  THEY ALSO DO NOT REPORT WEATHER SUCH
AS PRECIPITATION OR FOG.

IAZ001>003-012>014-020>022-031>034-043>046-172100-
   NORTHWEST IOWA

CITY           SKY/WX    TMP DP  RH WIND       PRES   REMARKS
CARROLL *      MOSUNNY   77  64  65 NW16G23   29.87S
CHEROKEE *     SUNNY     79  60  51 NW13G22   29.87S HX  80
DENISON *      SUNNY     79  61  53 NW15G22   29.91R HX  80
LE MARS *      SUNNY     79  59  50 NW12G21   29.89S HX  80
ORANGE CITY *  SUNNY     79  64  61 NW13G18   29.88F HX  81
SHELDON *      SUNNY     77  63  61 NW14      29.86S
SIOUX CITY     SUNNY     80  62  54 NW12      29.89S HX  81
SPENCER        PTSUNNY   79  62  56 NW20      29.85F HX  80
STORM LAKE *   MOSUNNY   75  63  64 NW14      29.88S
$$

IAZ055>058-069>071-079>083-090>094-172100-
   SOUTHWEST IOWA

CITY           SKY/WX    TMP DP  RH WIND       PRES   REMARKS
ATLANTIC *     SUNNY     79  61  53 W16       29.90S HX  80
AUDUBON *      SUNNY     79  61  53 W13       29.90S HX  80
CLARINDA *     SUNNY     81  59  47 NW15      29.94F HX  81
COUNCIL BLFS * SUNNY     79  61  53 NW13G20   29.93S HX  80
CRESTON *      SUNNY     81  57  44 NW17G30   29.91F HX  81
HARLAN  *      SUNNY     79  63  57 NW16G22   29.93F HX  80
LAMONI         SUNNY     81  60  48 W17G24    29.89F HX  82
RED OAK *      SUNNY     81  61  50 NW12G18   29.92F HX  81
SHENANDOAH *   SUNNY     81  61  50 W12G21    29.93F HX  81
$$

IAZ047>049-059>061-072>074-084-172100-
   CENTRAL IOWA

CITY           SKY/WX    TMP DP  RH WIND       PRES   REMARKS
AMES           PTSUNNY   76  66  71 NW13      29.84R
ANKENY *       CLOUDY    79  63  57 W15       29.85S HX  80
BOONE *        CLOUDY    75  64  69 W14G20    29.84S
CHARITON *     PTSUNNY   81  61  50 W9G24     29.86S HX  81
DES MOINES     PTSUNNY   82  62  50 W16       29.84S HX  83
GRINNELL*      CLOUDY    74  64  70 W9G18     29.85S
KNOXVILLE *    PTSUNNY   79  61  53 W14       29.84S HX  80
MARSHALLTOWN   CLOUDY    76  65  68 W18G24    29.81S
NEWTON *       CLOUDY    75  64  69 W9G18     29.84S
PELLA *        MOSUNNY   79  62  55 W9G18     29.86S HX  80
PERRY *        PTSUNNY   79  66  63 NW13G18   29.86S HX  81
$$

IAZ004>006-015-016-023>025-035-036-172100-
   NORTH CENTRAL IOWA

CITY           SKY/WX    TMP DP  RH WIND       PRES   REMARKS
ALGONA *       CLOUDY    72  64  78 NW12G18   29.84S
CLARION *      CLOUDY    73  66  78 NW17G24   29.83S
ESTHERVILLE    PTSUNNY   71  64  78 NW13G18   29.83S
FORT DODGE *   CLOUDY    73  63  68 W13G20    29.86S
MASON CITY     PTSUNNY   74  63  68 NW21      29.81S
FOREST CITY *  CLOUDY    72  63  73 NW18G24   29.81S
WEBSTER CITY * CLOUDY    73  64  73 W13G21    29.82S
IOWA FALLS *   CLOUDY    75  64  67 W15G25    29.84S
$$

IAZ007>011-017>019-026>030-037>042-050>054-066-172100-
   NORTHEAST IOWA

CITY           SKY/WX    TMP DP  RH WIND       PRES   REMARKS
CEDAR RAPIDS   CLOUDY    75  65  70 W20       29.79R
CHARLES CITY * CLOUDY    72  64  78 W16G29    29.78R
CLINTON *      CLOUDY    76  67  73 W18       29.76F
DECORAH *      CLOUDY    70  64  83 W10G26    29.71F
DUBUQUE        CLOUDY    73  64  73 W18G26    29.74S
MONTICELLO *   CLOUDY    77  64  65 W16G25    29.76R
OELWEIN *      CLOUDY    73  64  73 W21G29    29.76S
WATERLOO       CLOUDY    76  61  59 W16G26    29.77R
$$

IAZ064-065-067-068-078-172100-
   EAST CENTRAL IOWA

CITY           SKY/WX    TMP DP  RH WIND       PRES   REMARKS
DAVENPORT      MOSUNNY   80  65  59 W25G33    29.79F HX  82
IOWA CITY      PTSUNNY   79  65  62 W16G28    29.82R HX  81
MT. PLEASANT * MOSUNNY   80  61  51 W15G22    29.81F HX  81
MUSCATINE *    MOSUNNY   84  64  51 W21G30    29.80S HX  86
QUAD CITIES    MOSUNNY   84  64  50 W17G29    29.77F HX  85
$$

IAZ062-063-075>077-085>089-095>099-172100-
   SOUTHEAST IOWA

CITY           SKY/WX    TMP DP  RH WIND       PRES   REMARKS
BURLINGTON     PTSUNNY   84  67  56 W12G21    29.80F HX  86
FAIRFIELD *    PTSUNNY   79  63  57 W16       29.83S HX  80
FORT MADISON * MOSUNNY   84  66  54 W10       29.81F HX  86
KEOKUK *       MOSUNNY   86  66  51 W15G31    29.81S HX  88
OSKALOOSA *    PTSUNNY   77  63  61 W13       29.85S
CENTERVILLE *    N/A     81  63  54 SW17      29.88F HX  82
OTTUMWA        PTSUNNY   81  62  52 W16G23    29.84S HX  82
WASHINGTON *   PTSUNNY   77  66  69 W13G23    29.83S
$$

ABBREVIATIONS USED IN REMARKS
   TC - TEMPERATURES IN CELSIUS
  WCI - WIND CHILL INDEX
   HX - HEAT INDEX
  VSB - VISIBILITY
$$




USA.gov is the U.S. government's official web portal to all federal, state and local government web resources and services.